Regional Weather Roundup
Issued by NWS

Home | Current Version | Previous Version | Graphics & Text | Print | Product List | Glossary Off
Versions: 1 2 3 4 5 6 7 8 9 10 11 12 13 14 15 16 17 18 19 20 21 22 23 24 25 26 27 28 29 30 31 32 33 34 35 36 37 38 39 40 41 42 43 44 45 46 47 48 49 50

860
ASUS43 KDMX 281406
RWRIA

WEATHER ROUNDUP FOR IOWA
NATIONAL WEATHER SERVICE DES MOINES IA
900 AM CDT FRI APR 28 2017

NOTE: "FAIR" INDICATES FEW OR NO CLOUDS BELOW 12,000 FEET WITH NO
SIGNIFICANT WEATHER AND/OR OBSTRUCTIONS TO VISIBILITY.

* - THESE STATIONS ARE NOT NWS STATIONS...THUS NOT UNDER NWS
QUALITY CONTROL.  THEY ALSO DO NOT REPORT WEATHER SUCH
AS PRECIPITATION OR FOG.

IAZ001>003-012>014-020>022-031>034-043>046-281500-
   NORTHWEST IOWA

CITY           SKY/WX    TMP DP  RH WIND       PRES   REMARKS
CARROLL *      MIX PCPN  36  30  80 E10       29.89R WCI  28
CHEROKEE *     PTSUNNY   35  31  85 E7        29.90R WCI  29
DENISON *      LGT SNOW  34  30  86 E14G22    29.88R WCI  24
LE MARS *      PTSUNNY   37  30  75 VRB3      29.91R
ORANGE CITY *  CLOUDY    34  30  86 CALM      29.89R
SHELDON *      CLOUDY    36  30  80 NE7       29.88R WCI  30
SIOUX CITY     CLOUDY    37  29  72 E7        29.90R WCI  32
SPENCER        PTSUNNY   34  30  85 N5        29.90R WCI  30
STORM LAKE *   CLOUDY    34  28  80 SE12      29.89R WCI  25
$$

IAZ055>058-069>071-079>083-090>094-281500-
   SOUTHWEST IOWA

CITY           SKY/WX    TMP DP  RH WIND       PRES   REMARKS
ATLANTIC *     MIX PCPN  36  34  93 NE16      29.82F WCI  26
AUDUBON *      RAIN      36  30  80 E12       29.86F WCI  27
CLARINDA *     CLOUDY    39  39 100 NE15G22   29.79F FOG     WCI  31
COUNCIL BLFS * LGT RAIN  37  37 100 NE22G28   29.79R WCI  27
CRESTON *      LGT RAIN  37  36  93 NE25G31   29.80F WCI  26
HARLAN  *      RAIN      36  34  93 NE16      29.86F WCI  26
LAMONI         LGT RAIN  41  38  89 NE15      29.78R
RED OAK *      RAIN      37  36  93 NE15G25   29.79R WCI  28
SHENANDOAH *   MIX PCPN  39  37  93 NE21G29   29.75F WCI  29
$$

IAZ047>049-059>061-072>074-084-281500-
   CENTRAL IOWA

CITY           SKY/WX    TMP DP  RH WIND       PRES   REMARKS
AMES           CLOUDY    38  29  70 E6        29.89R WCI  33
ANKENY *       CLOUDY    37  28  70 NE9G15    29.90R WCI  31
BOONE *        CLOUDY    36  28  75 NE14      29.88R WCI  27
CHARITON *     MIX PCPN  41  36  81 NE9G18    29.84R
DES MOINES     LGT RAIN  40  28  62 NE15      29.88R WCI  32
GRINNELL*      CLOUDY    38  29  69 E16       29.89S WCI  29
KNOXVILLE *    PTSUNNY   39  30  70 NE15      29.84S WCI  31
MARSHALLTOWN   CLOUDY    38  29  70 E13       29.88F WCI  30
NEWTON *       CLOUDY    37  28  70 NE15      29.87R WCI  28
PELLA *        CLOUDY    39  32  75 E7        29.87S WCI  34
PERRY *        LGT RAIN  36  30  79 NE9       29.89R WCI  29
$$

IAZ004>006-015-016-023>025-035-036-281500-
   NORTH CENTRAL IOWA

CITY           SKY/WX    TMP DP  RH WIND       PRES   REMARKS
ALGONA *       CLOUDY    36  32  87 CALM      29.89S
CLARION *      CLOUDY    37  30  75 E9        29.89F WCI  31
ESTHERVILLE    CLOUDY    36  32  85 N3        29.89R
FORT DODGE *   CLOUDY    36  27  69 E8        29.90R WCI  29
MASON CITY     CLOUDY    39  30  70 SE5       29.91R
FOREST CITY *    N/A     39  30  70 CALM      29.89S
WEBSTER CITY * CLOUDY    37  28  70 E9        29.87R WCI  31
IOWA FALLS *   CLOUDY    38  29  71 E9        29.90R WCI  31
$$

IAZ007>011-017>019-026>030-037>042-050>054-066-281500-
   NORTHEAST IOWA

CITY           SKY/WX    TMP DP  RH WIND       PRES   REMARKS
CEDAR RAPIDS   PTSUNNY   40  32  73 E14       29.89F WCI  32
CHARLES CITY * CLOUDY    39  30  70 CALM      29.91R
CLINTON *      MOSUNNY   43  36  76 NE7       29.93F
DECORAH *      SUNNY     39  28  65 VRB6      29.91R WCI  35
DUBUQUE        CLOUDY    37  28  70 NE8       29.93R WCI  31
MONTICELLO *   CLOUDY    39  30  70 NE10G16   29.91F WCI  32
WATERLOO       CLOUDY    37  29  72 NE8       29.90F WCI  31
$$

IAZ064-065-067-068-078-281500-
   EAST CENTRAL IOWA

CITY           SKY/WX    TMP DP  RH WIND       PRES   REMARKS
DAVENPORT      CLOUDY    42  34  73 NE9       29.91S
IOWA CITY      PTSUNNY   42  33  70 NE13      29.91F
MT. PLEASANT * CLOUDY    42  36  78 NE13      29.86S
MUSCATINE *    CLOUDY    45  34  65 NE13      29.90S
QUAD CITIES    PTSUNNY   45  33  63 NE8       29.90F
$$

IAZ062-063-075>077-085>089-095>099-281500-
   SOUTHEAST IOWA

CITY           SKY/WX    TMP DP  RH WIND       PRES   REMARKS
BURLINGTON     CLOUDY    44  37  76 E13       29.85S
FAIRFIELD *    CLOUDY    43  32  65 NE16      29.85S
FORT MADISON * CLOUDY    45  39  81 E12       29.86R
KEOKUK *       LGT RAIN  45  41  87 NE9G16    29.83S
OSKALOOSA *      N/A     41  34  75 NE15      29.86R
CENTERVILLE *  LGT RAIN  41  37  87 NE15      29.82S
OTTUMWA        CLOUDY    42  34  73 NE15      29.85F
WASHINGTON *   CLOUDY    43  36  75 NE14      29.88F
$$

ABBREVIATIONS USED IN REMARKS
   TC - TEMPERATURES IN CELSIUS
  WCI - WIND CHILL INDEX
   HX - HEAT INDEX
  VSB - VISIBILITY
$$





USA.gov is the U.S. government's official web portal to all federal, state and local government web resources and services.